www.pogodaiklimat.ru

Погода и климат >> Архив погоды >> Норвегия >> Тынсет


ПОГОДА в Тынсете

  • Прогноз погоды в Тынсете
  • Монитор погоды в Тынсете

АРХИВ ПОГОДЫ в Тынсете

Время (UTC), дата Ветер
(напр.,м/с)
 
Видим.   Явления Облачность Т
(С)
Тd
(С)
f
(%)
Тe
(С)
Тes
(С)
Комфортность P
(гПа)
Po
(гПа)
Тmin
(С)
Tmax
(С)
R
(мм)
R24
(мм)
S
(см)
07 12.06 Ю 3
{5}
н/о н/о +12.0 +4.7 61 +11 +11 1025.8 968.7
08 12.06 ЮВ 4
{6}
н/о н/о +11.7 +4.9 63 +10 +10 1026.1 968.9
09 12.06 ЮВ 4
{8}
н/о н/о +11.3 +3.4 58 +9 +9 1026.3 969.0
10 12.06 ЮВ 2
{6}
н/о н/о +10.5 +4.4 66 +9 +9 1026.2 968.8
11 12.06 ЮВ 3
{6}
н/о н/о +11.2 +2.5 55 +10 +10 1025.5 968.2
12 12.06 В 3
{8}
н/о н/о +8.6 +3.7 71 +6 +6 1025.7 967.9
13 12.06 С 1
{5}
н/о н/о +9.5 +4.1 69 +9 +9 1024.4 966.8 0.2
14 12.06 СВ 2
{3}
н/о н/о +9.9 +4.5 69 +9 +9 1023.4 966.0 0.2
15 12.06 СЗ 1
{2}
н/о н/о +10.1 +5.5 73 +10 +10 1022.8 965.5
16 12.06 СВ 1
{2}
н/о н/о +10.4 +4.1 65 +10 +10 1022.0 964.8
17 12.06 ЮВ 2
{4}
н/о н/о +10.1 +2.7 60 +9 +9 1021.6 964.3
18 12.06 В 2
{5}
н/о н/о +9.0 +2.8 65 +8 +8 1021.3 963.7 +8.5 +12.3 0.4
19 12.06 ЮВ 2
{5}
н/о н/о +7.6 +3.1 73 +6 +6 1021.4 963.7
20 12.06 СВ 1
{2}
н/о н/о +7.2 +5.2 87 +6 +6 1021.1 963.3
21 12.06 СВ 1
{4}
н/о н/о +6.9 +4.7 86 +6 +6 1020.8 963.0 0.5
22 12.06 В 2
{3}
н/о н/о +7.0 +4.8 86 +5 +5 1020.2 962.4 0.1
23 12.06 В 1
{3}
н/о н/о +6.7 +5.2 90 +6 +6 1019.6 961.8
00 13.06 В 2
{5}
н/о н/о +6.6 +5.1 90 +4 +4 1018.7 960.9
01 13.06 В 1
{3}
н/о н/о +6.5 +5.5 93 +5 +5 1017.9 960.1
02 13.06 В 2
{3}
н/о н/о +6.5 +5.6 94 +4 +4 1017.1 959.4
03 13.06 В 1
{3}
н/о н/о +6.3 +5.6 95 +5 +5 1016.2 958.4
04 13.06 СЗ 1
{4}
н/о н/о +6.6 +5.7 94 +5 +5 1015.1 957.5
05 13.06 З 1
{2}
н/о н/о +6.9 +5.7 92 +6 +6 1014.9 957.4 0.2
06 13.06 СЗ 2
{4}
н/о н/о +7.2 +6.0 92 +5 +5 1013.6 956.2 +6.2 +9.0 3
07 13.06 ЮВ 1
{2}
н/о н/о +7.6 +6.5 93 +7 +7 1012.8 955.5 2
08 13.06 СЗ 2
{3}
н/о н/о +8.3 +6.3 87 +6 +6 1012.7 955.6 1
09 13.06 З 2
{3}
н/о н/о +9.2 +7.3 88 +7 +7 1012.2 955.3 1
10 13.06 Ю 1
{3}
н/о н/о +9.5 +7.6 88 +9 +9 1012.1 955.3 0.1
11 13.06 ЮВ 4
{8}
н/о н/о +10.3 +7.2 81 +8 +8 1011.9 955.2
12 13.06 Ю 2
{9}
н/о н/о +10.7 +8.3 85 +9 +9 1012.6 955.9
13 13.06 СЗ 3
{6}
н/о н/о +10.8 +8.2 84 +9 +9 1012.8 956.2 0.1
14 13.06 В 1
{6}
н/о н/о +10.8 +7.7 81 +11 +11 1013.2 956.5
15 13.06 В 3
{6}
н/о н/о +11.3 +8.7 84 +9 +9 1013.5 956.8
16 13.06 СВ 1
{5}
н/о н/о +11.3 +8.2 81 +11 +11 1013.6 957.1
17 13.06 В 2
{4}
н/о н/о +11.3 +8.5 83 +10 +10 1014.1 957.5
18 13.06 В 2
{6}
н/о н/о +11.3 +8.7 84 +10 +10 1014.5 957.9 +7.2 +12.1
19 13.06 В 1
{4}
н/о н/о +11.3 +8.7 84 +11 +11 1015.0 958.3
20 13.06 ЮВ 3
{6}
н/о н/о +11.3 +9.2 87 +9 +9 1015.4 958.7
21 13.06 ЮВ 2
{6}
н/о н/о +11.2 +9.1 87 +10 +10 1016.2 959.5
22 13.06 СЗ 1
{5}
н/о н/о +11.1 +9.0 87 +11 +11 1016.9 960.2
23 13.06 ЮЗ 1
{2}
н/о н/о +10.6 +9.4 92 +10 +10 1017.2 960.3
00 14.06 штиль 0
{6}
н/о н/о +10.0 +8.9 93 +9 +9 1017.7 960.6
01 14.06 ЮЗ 1
{2}
н/о н/о +10.1 +9.0 93 +10 +10 1017.6 960.5
02 14.06 СВ 1
{2}
н/о н/о +9.5 +8.6 94 +9 +9 1017.7 960.5 0.1
03 14.06 СВ 1
{2}
н/о н/о +8.5 +7.8 95 +8 +8 1017.7 960.3
04 14.06 В 1
{2}
н/о н/о +10.7 +9.0 89 +10 +10 1017.4 960.5
05 14.06 С 1
{4}
н/о н/о +11.6 +8.5 81 +11 +11 1018.0 961.1
06 14.06 З 2
{6}
н/о н/о +13.3 +8.4 72 +13 +13 1017.3 960.9 +8.4 +14.0 0.1
07 14.06 В 1
{4}
н/о н/о +14.9 +7.9 63 +16 +16 1016.8 960.8 0.4
08 14.06 С 2
{4}
н/о н/о +14.6 +7.9 64 +14 +14 1016.9 960.8 0.2
09 14.06 ЮВ 3
{5}
н/о н/о +17.5 +8.1 54 +18 +18 1016.3 960.7
10 14.06 ЮВ 3
{6}
н/о н/о +18.3 +6.5 46 +19 +19 1015.9 960.5
11 14.06 ЮВ 4
{7}
н/о н/о +17.7 +6.9 49 +17 +17 1015.8 960.3
12 14.06 Ю 2
{7}
н/о н/о +19.2 +6.7 44 +20 +20 1015.2 959.9
13 14.06 Ю 2
{8}
н/о н/о +20.5 +5.0 36 +22 +22 комфорт 1014.6 959.7
14 14.06 З 2
{6}
н/о н/о +21.7 +4.8 33 +22 +22 комфорт 1013.8 959.1
15 14.06 З 3
{8}
н/о н/о +22.0 +4.6 32 +22 +22 комфорт 1013.1 958.5
16 14.06 Ю 2
{8}
н/о н/о +22.6 +6.4 35 +23 +23 комфорт 1013.0 958.4
17 14.06 ЮЗ 3
{7}
н/о н/о +21.3 +6.1 37 +22 +22 комфорт 1013.1 958.4
18 14.06 ЮЗ 3
{8}
н/о н/о +19.9 +6.3 41 +21 +21 комфорт 1013.5 958.5 +12.1 +22.7
19 14.06 ЮЗ 3
{8}
н/о н/о +18.4 +6.9 47 +19 +19 1014.1 958.9
20 14.06 ЮВ 1
{4}
н/о н/о +14.9 +9.3 69 +15 +15 1015.5 959.5
21 14.06 ЮЗ 2
{3}
н/о н/о +15.0 +8.7 66 +15 +15 1016.2 960.3
22 14.06 Ю 2
{4}
н/о н/о +12.9 +8.6 75 +12 +12 1017.1 960.6
23 14.06 Ю 1
{3}
н/о н/о +10.3 +8.1 86 +10 +10 1018.2 961.2
00 15.06 ЮВ 1
{8}
н/о н/о +8.7 +7.5 92 +8 +8 1018.7 961.3
01 15.06 штиль 0
{2}
н/о н/о +6.6 +5.6 93 +6 +6 1019.6 961.8
02 15.06 штиль 0
{1}
н/о н/о +6.2 +5.6 96 +5 +5 1019.8 961.9
03 15.06 штиль 0
{2}
н/о н/о +5.8 +5.2 96 +5 +5 1020.3 962.2
04 15.06 штиль 0
{1}
н/о н/о +7.8 +7.2 96 +7 +7 1019.8 962.2
05 15.06 З 1
{1}
н/о н/о +10.3 +7.4 82 +10 +10 1019.4 962.3
06 15.06 В 1
{2}
н/о н/о +13.1 +9.0 76 +13 +13 1018.7 962.2 +5.7 +20.2
07 15.06 СВ 1
{2}
н/о н/о +16.1 +9.8 66 +17 +17 1018.0 962.1 0.1
08 15.06 В 1
{2}
н/о н/о +18.8 +7.6 48 +20 +20 1017.2 961.8
09 15.06 штиль 0
{3}
н/о н/о +22.0 +8.9 43 +23 +23 комфорт 1016.3 961.5
10 15.06 В 2
{4}
н/о н/о +21.6 +8.2 42 +23 +23 комфорт 1016.2 961.4
11 15.06 СВ 2
{5}
н/о н/о +21.9 +7.3 39 +23 +23 комфорт 1016.0 961.3
12 15.06 СВ 1
{5}
н/о н/о +22.9 +5.8 33 +23 +23 комфорт 1015.6 961.1
13 15.06 СВ 3
{6}
н/о н/о +23.4 +7.1 35 +24 +24 комфорт 1014.9 960.5
14 15.06 В 3
{5}
н/о н/о +23.0 +7.6 37 +24 +24 комфорт 1014.4 959.9
15 15.06 СЗ 3
{5}
н/о н/о +22.8 +5.3 32 +23 +23 комфорт 1014.3 959.8
16 15.06 СВ 2
{5}
н/о н/о +22.9 +7.1 36 +24 +24 комфорт 1013.9 959.5 0.1
17 15.06 СВ 4
{7}
н/о н/о +21.2 +7.5 41 +22 +22 комфорт 1014.0 959.2
18 15.06 СВ 3
{7}
н/о н/о +20.4 +8.4 46 +22 +22 комфорт 1013.9 959.0 +13.1 +23.4 0.3
19 15.06 СВ 3
{6}
н/о н/о +19.6 +8.3 48 +21 +21 комфорт 1014.0 958.9
20 15.06 СВ 1
{7}
н/о н/о +17.4 +6.9 50 +18 +18 1014.6 959.1
21 15.06 ЮВ 1
{2}
н/о н/о +13.8 +7.4 65 +14 +14 1015.5 959.3
22 15.06 Ю 1
{2}
н/о н/о +10.8 +8.6 86 +10 +10 1016.1 959.3
23 15.06 Ю 1 н/о н/о +8.9 +7.0 88 +8 +8 1016.2 959.0
00 16.06 З 1
{7}
н/о н/о +7.6 +6.5 93 +7 +7 1016.6 959.1
01 16.06 штиль 0
{2}
н/о н/о +7.1 +6.2 94 +6 +6 1016.8 959.2
02 16.06 Ю 1
{1}
н/о н/о +6.4 +5.7 95 +5 +5 1016.6 958.9
03 16.06 штиль 0
{1}
н/о н/о +7.4 +6.8 96 +6 +6 1016.2 958.7
04 16.06 штиль 0
{1}
н/о н/о +9.6 +7.4 86 +9 +9 1015.6 958.5
05 16.06 штиль 0
{1}
н/о н/о +11.8 +7.7 76 +11 +11 1015.0 958.4 0.2
06 16.06 СВ 1
{2}
н/о н/о +13.7 +8.5 71 +14 +14 1014.2 958.0 +5.9 +20.5 0.2
07 16.06 В 1
{2}
н/о н/о +16.5 +9.0 61 +17 +17 1013.0 957.4
08 16.06
{2}
н/о н/о +18.7 +9.5 55 1012.0 956.8
09 16.06 ЮВ 4
{7}
н/о н/о +22.2 +8.3 41 +23 +23 комфорт 1010.7 956.3
10 16.06 Ю 5
{10}
н/о н/о +19.7 +7.5 45 +20 +20 1011.6 956.7
11 16.06 Ю 3
{9}
н/о н/о +18.6 +7.7 49 +19 +19 1012.1 957.0
12 16.06 Ю 2
{10}
н/о н/о +19.4 +9.3 52 +21 +21 комфорт 1011.6 956.6
13 16.06 ЮВ 5
{8}
н/о н/о +20.3 +8.3 46 +21 +21 комфорт 1011.1 956.3
14 16.06 Ю 3
{9}
н/о н/о +20.4 +8.4 46 +22 +22 комфорт 1010.8 956.2
15 16.06 Ю 4
{7}
н/о н/о +20.8 +7.1 41 +22 +22 комфорт 1010.4 955.8
16 16.06 ЮВ 3
{8}
н/о н/о +20.2 +7.2 43 +21 +21 комфорт 1010.3 955.6
17 16.06 З 3
{8}
н/о н/о +17.6 +9.5 59 +18 +18 1011.4 956.3
18 16.06 Ю 1
{9}
н/о н/о +15.2 +11.4 78 +16 +16 1012.1 956.4 +13.7 +22.8 0.1
19 16.06 З 1
{6}
н/о н/о +15.6 +11.8 78 +16 +16 1011.7 956.0 0.2
20 16.06 С 1
{3}
н/о н/о +15.3 +10.9 75 +16 +16 1011.5 955.8
21 16.06 Ю 3
{5}
н/о н/о +14.5 +11.5 82 +14 +14 1011.7 955.8
22 16.06 С 1
{5}
н/о н/о +14.3 +11.8 85 +15 +15 1011.7 955.8
23 16.06 Ю 1
{3}
н/о н/о +14.1 +11.4 84 +14 +14 1011.6 955.7
00 17.06 штиль 0
{6}
н/о н/о +13.7 +11.8 88 +13 +13 1011.7 955.7
01 17.06 ЮЗ 1
{2}
н/о н/о +13.5 +11.6 88 +14 +14 1011.8 955.7
02 17.06 З 5
{7}
н/о н/о +12.6 +9.6 82 +10 +10 1012.1 955.9
03 17.06 В 1
{7}
н/о н/о +11.2 +8.4 83 +11 +11 1013.0 956.5
04 17.06 С 2
{5}
н/о н/о +10.6 +7.3 80 +9 +9 1013.6 956.9
05 17.06 ЮВ 2
{5}
н/о н/о +10.1 +7.5 84 +9 +9 1014.1 957.3 0.1
06 17.06 Ю 2
{7}
н/о н/о +10.1 +7.9 86 +9 +9 1014.2 957.4 +9.8 +15.8 0.5
07 17.06 СВ 1
{3}
н/о н/о +10.6 +8.4 86 +10 +10 1014.3 957.5 0.1
08 17.06 Ю 1
{2}
н/о н/о +11.5 +8.5 82 +11 +11 1014.2 957.6
09 17.06 С 1
{3}
н/о н/о +13.5 +8.8 73 +14 +14 1013.5 957.2
10 17.06 В 2
{4}
н/о н/о +14.2 +8.8 70 +14 +14 1013.0 957.0
11 17.06 В 2
{4}
н/о н/о +16.5 +8.2 58 +17 +17 1012.0 956.5
12 17.06 В 2
{5}
н/о н/о +17.2 +8.9 58 +18 +18 1011.5 956.0 0.1
13 17.06 СВ 2
{4}
н/о н/о +18.2 +7.3 49 +19 +19 1010.4 955.3
14 17.06 СВ 1
{4}
н/о н/о +19.0 +7.8 48 +21 +21 комфорт 1009.4 954.5
15 17.06 С 2
{5}
н/о н/о +20.8 +7.8 43 +23 +23 комфорт 1008.1 953.5
16 17.06 ЮЗ 5
{10}
н/о н/о +21.3 +2.6 29 +21 +21 комфорт 1007.6 953.1
17 17.06 ЮЗ 5
{9}
н/о н/о +21.2 +2.0 28 +21 +21 комфорт 1007.4 953.0
18 17.06 ЮЗ 3
{10}
н/о н/о +19.4 +4.0 36 +20 +20 1007.8 953.0 +10.1 +22.2 0.2
19 17.06 ЮЗ 4
{9}
н/о н/о +19.3 +4.3 37 +20 +20 1008.0 953.2
20 17.06 Ю 2
{9}
н/о н/о +17.4 +5.1 44 +18 +18 1008.6 953.4
21 17.06 Ю 2
{5}
н/о н/о +16.9 +5.8 48 +17 +17 1009.1 953.8
22 17.06 СЗ 1
{7}
н/о н/о +13.8 +7.8 67 +14 +14 1009.4 953.5
23 17.06 Ю 2
{5}
н/о н/о +14.1 +6.5 60 +14 +14 1009.2 953.4
00 18.06 С 1
{9}
н/о н/о +12.4 +6.9 69 +13 +13 1009.6 953.5
01 18.06 СВ 1
{5}
н/о н/о +11.1 +6.7 74 +11 +11 1009.9 953.5
02 18.06 С 1
{3}
н/о н/о +10.5 +6.1 74 +10 +10 1010.0 953.4
03 18.06
{3}
н/о н/о +10.5 +6.5 76 1010.3 953.7
04 18.06 ЮЗ 2
{5}
н/о н/о +13.5 +4.9 56 +13 +13 1009.7 953.8
05 18.06 ЮЗ 2
{6}
н/о н/о +14.1 +4.4 52 +14 +14 1009.7 954.0
06 18.06 СЗ 2
{6}
н/о н/о +14.2 +4.5 52 +14 +14 1009.6 953.9 +9.1 +19.4
07 18.06 ЮЗ 4
{8}
н/о н/о +15.5 +4.3 47 +15 +15 1009.0 953.5
08 18.06 ЮЗ 4
{10}
н/о н/о +15.9 +4.6 47 +15 +15 1009.0 953.5
09 18.06 Ю 4
{10}
н/о н/о +15.6 +3.7 45 +15 +15 1009.0 953.5
10 18.06 Ю 4
{10}
н/о н/о +15.2 +4.0 47 +14 +14 1009.0 953.4
11 18.06 ЮЗ 4
{12}
н/о н/о +17.1 +4.8 44 +17 +17 1008.6 953.4
12 18.06 ЮЗ 4
{12}
н/о н/о +17.8 +4.1 40 +18 +18 1008.1 953.0
13 18.06 Ю 5
{11}
н/о н/о +17.5 +3.4 39 +17 +17 1007.7 952.6
14 18.06 Ю 4
{8}
н/о н/о +18.0 +3.5 38 +18 +18 1007.4 952.4
15 18.06 ЮЗ 4
{9}
н/о н/о +17.6 +3.9 40 +17 +17 1007.0 952.1
16 18.06 ЮЗ 5
{9}
н/о н/о +17.8 +3.0 37 +17 +17 1006.5 951.5
17 18.06 ЮЗ 4
{11}
н/о н/о +18.4 +3.5 37 +18 +18 1006.0 951.1
18 18.06 Ю 4
{11}
н/о н/о +16.3 +6.7 53 +16 +16 1005.9 950.7 +13.8 +18.7
19 18.06 Ю 5
{9}
н/о н/о +15.7 +5.9 52 +15 +15 1006.0 950.7
20 18.06 Ю 3
{8}
н/о н/о +14.4 +6.3 58 +14 +14 1006.4 950.8
21 18.06 З 1
{8}
н/о н/о +10.7 +7.0 78 +10 +10 1008.4 952.0 0.1
22 18.06 Ю 1
{3}
н/о н/о +8.0 +6.3 89 +7 +7 1009.7 952.7
23 18.06 СЗ 1
{4}
н/о н/о +6.6 +4.6 87 +6 +6 1010.4 953.1
00 19.06 Ю 1
{9}
н/о н/о +4.6 +3.1 90 +3 +3 1011.0 953.3
01 19.06 З 1
{3}
н/о н/о +3.4 +2.4 93 +2 +2 1011.6 953.6
02 19.06 В 1
{2}
н/о н/о +2.6 +2.0 96 +1 +1 1012.0 953.8
03 19.06 штиль 0
{1}
н/о н/о +3.9 +3.2 95 +3 +3 1012.1 954.1
05 19.06 С 1
{2}
н/о н/о +7.8 +4.6 80 +7 +7 1011.1 954.1
06 19.06 Ю 1
{3}
н/о н/о +8.9 +5.5 79 +8 +8 1011.0 954.1 +2.2 +16.3
07 19.06 С 1
{2}
н/о н/о +11.9 +6.2 68 +12 +12 1010.1 953.8
08 19.06 штиль 0
{3}
н/о н/о +15.8 +5.1 49 +16 +16 1009.1 953.6

 

Местоположение метеостанции Тынсет (Норвегия): широта 62.27 долгота 10.73 высота над уровнем моря 482 м.

В архиве по умолчанию представлена погода в Тынсете за последнюю неделю. Архивные данные за месяц целиком и за предыдущие месяцы, начиная с января 2011 года, Вы можете получить, выбрав интересующий диапазон дат из раскрывающегося списка и нажав кнопку "Ввод!".


*Определитесь, кто Вы:
робот инопланетянин человек

Внимание! Время в таблицах - всемирное. Для получения местного времени необходимо прибавить поправку, которая равна 1 ч.

Смотрите также архив погоды в соседних городах и на ближайших метеорологических станциях:

Погода в Фоллдале (Норвегия) (41 км)
Погода в Рёрус аэропорту (Норвегия) (47 км)
Погода в Хьеркинне (Норвегия) (62 км)
Погода в Оппдале (Норвегия) (66 км)
Погода в Солендете (Норвегия) (72 км)
Погода в Венабу (Норвегия) (76 км)
Погода в Фокстугу (Норвегия) (77 км)
Погода в Котсой (Норвегия) (79 км)
Погода в Древсё (Норвегия) (81 км)
Погода в Сокнедале (Норвегия) (81 км)

Пояснения к столбцам:

Ветер - указаны скорость ветра в м/с - средняя за 10 мин, порывы в срок и между сроками (в фигурных скобках) и направление, откуда дует ветер: С - северный, СВ - северо-восточный, В - восточный, ЮВ - юго-восточный, Ю - южный, ЮЗ - юго-западный, З - западный, СЗ - северо-западный.
Видимость - горизонтальная дальность видимости в метрах или километрах. При видимости от 1 до 10 км при отсутствии осадков обычно наблюдается дымка, при ухудшении видимости до 1 км и менее - туман. В сухую погоду видимость может ухудшаться дымом, пылью или мглою.
Явления - указаны атмосферные явления, наблюдавшиеся в срок или в последний час перед сроком; фигурными скобками обозначены явления, наблюдавшиеся между сроками (за 1-3 часа до срока); квадратными скобками обозначены град или гололедные отложения с указанием их диаметра в мм.
Облачность - указаны через наклонную черту общая и нижняя облачность в баллах и высота нижней границы облаков в метрах; квадратными скобками обозначены формы облаков: Ci - перистые, Cs - перисто-слоистые, Cc - перисто-кучевые, Ac - высококучевые, As - высокослоистые, Sc - слоисто-кучевые, Ns - слоисто-дождевые, Cu - кучевые, Cb - кучево-дождевые. Подробнее классификацию облаков см. в Атласе облаков (PDF).
T - Температура воздуха - температура, измеренная на высоте 2 м над землей.
Td - Температура точки росы - температура, при понижении до которой содержащийся в воздухе водяной пар достигнет насыщения.
f - Относительная влажность воздуха - влажноcть воздуха, измеренная на высоте 2 м над землей.
Te - Эффективная температура - температура, которую ощущает одетый по сезону человек в тени. Характеристика душности погоды. При расчете учитывается влияние влажности воздуха и скорости ветра на теплоощущения человека.
Tes - Эффективная температура на солнце - температура, которую ощущает человек, с поправкой на солнечный нагрев. Характеристика знойности погоды. Зависит от высоты солнца над горизонтом, облачности и скорости ветра. Ночью, в пасмурную погоду, а также при ветре 12 м/с и более поправка равна нулю.
P - Атмосферное давление - приведенное к уровню моря атмосферное давление.
Po - Атмосферное давление - измеренное на уровне метеостанции атмосферное давление.
Tmin - Минимальная температура - минимум температуры воздуха на высоте 2 м над землей.
Tmax - Максимальная температура - максимум температуры воздуха на высоте 2 м над землей.
R - Количество осадков - Количество выпавших осадков за период времени, мм. При наведении курсора мыши на число - период времени, за который выпало указанное количество осадков.
R24 - Количество осадков - Количество выпавших осадков за 24 часа, мм.
S - Снежный покров - Высота снежного покрова, см. При наведении курсора мыши на число - состояние снежного покрова и степень покрытия местности в баллах.